Regional Weather Roundup
Issued by NWS

Home | Current Version | Previous Version | Graphics & Text | Print | Product List | Glossary On
Versions: 1 2 3 4 5 6 7 8 9 10 11 12 13 14 15 16 17 18 19 20 21 22 23 24 25 26 27 28 29 30 31 32 33 34 35 36 37 38 39 40 41 42 43 44 45 46 47 48 49 50
000
ASUS43 KMPX 261801
RWRMN
WEATHER ROUNDUP FOR MINNESOTA
NATIONAL WEATHER SERVICE TWIN CITIES/CHANHASSEN MN
100 PM CDT TUE MAY 26 2015


NOTE: "FAIR" INDICATES FEW OR NO CLOUDS BELOW 12,000 FEET WITH NO
SIGNIFICANT WEATHER AND/OR OBSTRUCTIONS TO VISIBILITY. N/A MEANS
CURRENT SKY AND/OR WEATHER CONDITIONS ARE NOT AVAILABLE.

MNZ060>063-068>070-261900-
   Twin Cities Metro

CITY           SKY/WX    TMP DP  RH WIND       PRES   REMARKS
TWIN CITIES    LGT RAIN  57  55  93 N9        29.79S
6HR MIN TEMP:  57; 6HR MAX TEMP:  59; 6HR PCP:  0.13;

ST PAUL        LGT RAIN  57  56  96 N5        29.79F
CRYSTAL        RAIN      57  55  93 N6        29.78S FOG
LAKEVILLE      LGT RAIN  57  57 100 N6        29.77S
EDEN PRAIRIE   LGT RAIN  58  56  93 N7        29.77F
6HR MIN TEMP:  56; 6HR MAX TEMP:  59; 6HR PCP:  0.28;

SOUTH ST PAUL  LGT RAIN  58  56  93 N6        29.78S
LAKE ELMO      RAIN      59  57  94 N7        29.79F
$$
MNZ001>005-007-008-013>017-022>024-027-028-261900-
   Northwest Minnesota

CITY           SKY/WX    TMP DP  RH WIND       PRES   REMARKS
BEMIDJI        PTSUNNY   69  52  54 SE3       29.84F
HALLOCK        SUNNY     77  50  38 CALM      29.77S
ROSEAU         SUNNY     77  54  44 SW7       29.79S
WARROAD        SUNNY     75  55  50 S6        29.79S
THIEF RVR FALL SUNNY     75  50  41 SW9       29.80F
CROOKSTON      SUNNY     75  52  43 SW12      29.80F
FOSSTON        MOSUNNY   72  54  53 S7        29.83F
DETROIT LAKES  PTSUNNY   70  52  52 S3        29.85F
MOORHEAD       PTSUNNY   70  55  60 S7        29.83F
PARK RAPIDS    PTSUNNY   72  50  45 E8        29.84S
MAHNOMEN       FAIR      69  53  56 SW6       29.83F
$$
MNZ006-009>011-018-025>026-261900-
   North Central Minnesota

CITY           SKY/WX    TMP DP  RH WIND       PRES   REMARKS
BAUDETTE       MOSUNNY   74  51  44 S7        29.80F
FLAG ISLAND    SUNNY     63  52  67 SE12      29.78R
INTL FALLS     MOSUNNY   71  52  50 SE8       29.82F
6HR MIN TEMP:  47; 6HR MAX TEMP:  73;

WASKISH        MOSUNNY   70  55  60 CALM      29.83S
BIG FORK       PTSUNNY   72  54  53 E6        29.84F
LONGVILLE      PTSUNNY   70  54  56 NE6       29.84F
GRAND RAPIDS   PTSUNNY   68  52  56 NE6       29.85S
CRANE LAKE     PTSUNNY   68  52  56 CALM      29.86S
ORR            PTSUNNY   68  50  52 CALM      29.82F
COOK           PTSUNNY   68  52  56 E5        29.85F
WALKER         FAIR      64  53  66 E3        29.85S
$$
MNZ012-019>021-037-261900-
   Northeast Minnesota

CITY           SKY/WX    TMP DP  RH WIND       PRES   REMARKS
DULUTH         CLOUDY    61  53  75 E10       29.85F
6HR MIN TEMP:  53; 6HR MAX TEMP:  61;

ELY            PTSUNNY   70  46  43 E9        29.85S
HIBBING        PTSUNNY   69  49  48 E9        29.84F
EVELETH        PTSUNNY   70  52  52 E9        29.86S
DULUTH HARBOR  CLOUDY    54  52  94 N7        29.86F
TWO HARBORS    CLOUDY    64  55  72 E8G16     29.84F
SILVER BAY     PTSUNNY   63  54  72 E6        29.85F
GRAND MARAIS     N/A     52  48  86 W6        29.87S
G MARAIS ARPRT PTSUNNY   63  52  67 SE3       29.88S
$$
MNZ029>031-032-039>041-046>048-054>057-064-261900-
   West Central Minnesota

CITY           SKY/WX    TMP DP  RH WIND       PRES   REMARKS
FERGUS FALLS   PTSUNNY   70  52  52 NE3       29.83F
WHEATON        CLOUDY    68  54  60 N8        29.85F
MORRIS         CLOUDY    70  54  56 NE15      29.82S
ALEXANDRIA     CLOUDY    68  52  56 NE13      29.84S
ELBOW LAKE     FAIR      68  52  56 NE6G16    29.83F
WADENA         PTSUNNY   70  54  56 NE6       29.83F
GLENWOOD       CLOUDY    66  55  68 NE10      29.83F
APPLETON       CLOUDY    68  54  60 N6        29.82F
BENSON         CLOUDY    66  54  63 NE7       29.82F
ORTONVILLE     CLOUDY    68  54  60 NE9       29.83S
MADISON        CLOUDY    64  54  68 N8        29.83S
WILLMAR        FAIR      61  55  82 NE8       29.83S
$$
MNZ033>034-036-042>043-049>051-058-059-261900-
   Central Minnesota

CITY           SKY/WX    TMP DP  RH WIND       PRES   REMARKS
ST CLOUD       CLOUDY    59  54  83 NE8       29.82S
6HR MIN TEMP:  53; 6HR MAX TEMP:  59;

SAUK CENTRE    FAIR      65  54  65 NE14      29.82F
PAYNESVILLE    CLOUDY    56  53  87 N9G16     29.82F
AITKIN         CLOUDY    66  55  68 NE9       29.82F
PINE RIVER     PTSUNNY   70  54  56 NE9       29.87S
BRAINERD       CLOUDY    66  54  65 E10       29.83F
STAPLES        PTSUNNY   70  50  49 E6        29.83F
LONG PRAIRIE   FAIR      64  52  63 NE9G17    29.83S
LITTLE FALLS   CLOUDY    63  52  67 E7        29.82F
LITCHFIELD     CLOUDY    59  57  94 NE7       29.81F
BUFFALO        LGT RAIN  57  54  89 N7        29.81F
MAPLE LAKE     LGT RAIN  59  56  89 N8        29.82S
$$
MNZ037-044-045-052-053-261900-
   East Central Minnesota

CITY           SKY/WX    TMP DP  RH WIND       PRES   REMARKS
PRINCETON      CLOUDY    59  54  82 N10       29.82S
MORA           CLOUDY    55  50  82 NE6       29.84S
CAMBRIDGE      CLOUDY    61  52  72 NE6       29.79F
RUSH CITY      CLOUDY    58  54  86 N8        29.81F
MOOSE LAKE     CLOUDY    59  55  88 NE6       29.83F
HINCKLEY       CLOUDY    59  54  82 N10       29.83S
CLOQUET        CLOUDY    61  54  77 NE8       29.85F
MCGREGOR       CLOUDY    64  55  72 E6        29.84F
$$
MNZ071>073-080-081-089-090-097-098-261900-
   Southwest Minnesota

CITY           SKY/WX    TMP DP  RH WIND       PRES   REMARKS
MONTEVIDEO     CLOUDY    64  55  72 NE13      29.83S
GRANITE FALLS  CLOUDY    59  53  82 N7        29.84R
CANBY          CLOUDY    63  55  76 N10       29.85S
MARSHALL       CLOUDY    57  52  82 N8        29.83R
REDWOOD FALLS  LGT RAIN  58  55  90 N7        29.81S
OLIVIA         CLOUDY    54  50  87 NE7       29.81S
PIPESTONE      CLOUDY    55  52  88 NE6       29.84R
WINDOM         RAIN      57  55  94 N3        29.82R
WORTHINGTON    CLOUDY    57  52  82 N12       29.83R
JACKSON        RAIN      57  55  94 VRB3      29.82R
TRACY          LGT RAIN  57  55  95 N8        29.83R
SLAYTON        RAIN      55  55  98 CALM      29.84S
$$
MNZ065>067-074>077-082>085-091>093-261900-
   South Central Minnesota

CITY           SKY/WX    TMP DP  RH WIND       PRES   REMARKS
MANKATO        CLOUDY    59  57  94 NE8       29.78S
NEW ULM        RAIN      57  57 100 N3        29.79S
ST JAMES       RAIN      61  57  88 NW5       29.81R
FAIRMONT       CLOUDY    57  54  88 N6        29.80R
GLENCOE        RAIN      56  56  99 N7        29.79S
FARIBAULT      LGT RAIN  63  61  94 NW5       29.77S
OWATONNA       LGT RAIN  63  59  88 NW3       29.77R
WASECA         LGT RAIN  61  59  94 NW7       29.78S
ALBERT LEA     LGT RAIN  63  61  94 W7        29.77R
$$
MNZ078>079-086>088-094>096-261900-
   Southeast Minnesota

CITY           SKY/WX    TMP DP  RH WIND       PRES   REMARKS
ROCHESTER      LGT RAIN  63  60  90 N13       29.77S
6HR MIN TEMP:  60; 6HR MAX TEMP:  63; 6HR PCP:  0.18;

RED WING       LGT RAIN  64  61  88 CALM      29.74F
STANTON        RAIN      64  60  86 N6        29.75S
DODGE CENTER   LGT RAIN  63  61  94 NW6       29.77R
WINONA         CLOUDY    63  61  94 N3        29.72F
AUSTIN         LGT RAIN  63  61  94 NW6       29.76S
PRESTON        LGT RAIN  60  58  94 N10       29.74F
$$
ABBREVIATIONS USED IN REMARKS
   TC - TEMPERATURES IN CELSIUS
  WCI - WIND CHILL INDEX
   HX - HEAT INDEX
  VSB - VISIBILITY
$$


USA.gov is the U.S. government's official web portal to all federal, state and local government web resources and services.